FW6525 Weather Reports


Display with metric or nautical units.
time (UTC)temp
F
wind
direction
speed
MPH
gust
MPH
rain 1hr
in
rain 24hr
in
rain mn
in
humidity
%
barometer
mb
20220122054827 25 310 4.0 7.0 0.00 0.00 0.00 91 1017.9
20220122054321 25 305 5.0 7.0 0.00 0.00 0.00 91 1017.8
20220122053822 26 292 3.0 6.0 0.00 0.00 0.00 91 1017.7
20220122053306 26 304 4.0 4.0 0.00 0.00 0.00 91 1017.4
20220122052757 26 302 3.0 6.0 0.00 0.00 0.00 91 1017.5
20220122052249 27 312 3.0 6.0 0.00 0.00 0.00 91 1017.3
20220122051740 27 326 3.0 6.0 0.00 0.00 0.00 91 1017.2
20220122051232 27 291 3.0 6.0 0.00 0.00 0.00 91 1017.1
20220122050726 27 308 4.0 6.0 0.00 0.00 0.00 91 1017.5
20220122050215 26 290 3.0 6.0 0.00 0.00 0.00 91 1017.0
20220122045709 26 297 4.0 6.0 0.00 0.00 0.00 91 1016.8
20220122045202 26 286 3.0 4.0 0.00 0.00 0.00 91 1016.8
20220122044652 26 292 2.0 4.0 0.00 0.00 0.00 91 1016.8
20220122044143 26 298 3.0 4.0 0.00 0.00 0.00 91 1016.6
20220122043635 27 294 2.0 6.0 0.00 0.00 0.00 91 1016.8
20220122043128 27 319 3.0 6.0 0.00 0.00 0.00 91 1016.5
20220122042621 27 320 3.0 6.0 0.00 0.00 0.00 91 1016.7
20220122042114 27 326 3.0 6.0 0.00 0.00 0.00 91 1016.3
20220122041604 27 321 4.0 8.0 0.00 0.00 0.00 91 1016.7
20220122041058 28 306 6.0 8.0 0.00 0.00 0.00 91 1016.4
20220122040554 28 327 5.0 8.0 0.00 0.00 0.00 91 1016.3
20220122040041 28 324 6.0 7.0 0.00 0.00 0.00 91 1016.3
20220122035534 28 307 4.0 7.0 0.00 0.00 0.00 91 1016.5
20220122035024 28 331 5.0 7.0 0.00 0.00 0.00 92 1016.4
20220122034517 28 332 6.0 8.0 0.00 0.00 0.00 92 1016.4
20220122034009 28 351 4.0 8.0 0.00 0.00 0.00 92 1016.2
20220122033502 28 326 3.0 9.0 0.00 0.00 0.00 92 1016.4
20220122032953 28 333 5.0 9.0 0.00 0.00 0.00 92 1016.2
20220122032444 28 344 5.0 8.0 0.00 0.00 0.00 92 1016.2
20220122031936 28 326 5.0 8.0 0.00 0.00 0.00 92 1016.4
20220122031427 28 323 4.0 7.0 0.00 0.00 0.00 92 1016.3
20220122030919 28 325 4.0 8.0 0.00 0.00 0.00 92 1016.0
20220122030411 28 335 6.0 8.0 0.00 0.00 0.00 92 1016.2
20220122025903 28 329 6.0 8.0 0.00 0.00 0.00 92 1016.3
20220122025355 28 323 4.0 7.0 0.00 0.00 0.00 92 1016.0
20220122024849 28 326 4.0 9.0 0.00 0.00 0.00 92 1015.9
20220122024340 28 324 4.0 10.0 0.00 0.00 0.00 92 1015.9
20220122023832 28 341 4.0 10.0 0.00 0.00 0.00 92 1015.9
20220122023324 28 314 8.0 9.0 0.00 0.00 0.00 92 1016.2
20220122022818 28 320 4.0 8.0 0.00 0.00 0.00 92 1015.8
20220122022307 28 290 5.0 8.0 0.00 0.00 0.00 92 1015.8
20220122021800 28 309 5.0 8.0 0.00 0.00 0.00 92 1015.8
20220122021255 28 298 5.0 9.0 0.00 0.00 0.00 92 1015.9
20220122020743 28 301 4.0 9.0 0.00 0.00 0.00 92 1015.7
20220122020236 28 290 6.0 10.0 0.00 0.00 0.00 92 1015.9
20220122015729 28 294 8.0 10.0 0.00 0.00 0.00 92 1016.0
20220122015222 28 294 4.0 9.0 0.00 0.00 0.00 92 1015.8
20220122014713 28 285 5.0 9.0 0.00 0.00 0.00 92 1016.0
20220122014205 28 304 5.0 11.0 0.00 0.00 0.00 92 1016.0
20220122013655 28 318 6.0 11.0 0.00 0.00 0.00 92 1016.0
20220122013149 28 295 8.0 11.0 0.00 0.00 0.00 92 1016.1
20220122012639 28 315 9.0 11.0 0.00 0.00 0.00 92 1015.9
20220122012131 28 313 5.0 11.0 0.00 0.00 0.00 92 1016.0
20220122011626 28 297 7.0 11.0 0.00 0.00 0.00 92 1016.3
20220122011117 28 289 6.0 10.0 0.00 0.00 0.00 92 1016.2
20220122010608 28 305 6.0 9.0 0.00 0.00 0.00 92 1016.1
20220122010100 28 305 7.0 9.0 0.00 0.00 0.00 92 1016.1
20220122005552 28 284 5.0 9.0 0.00 0.00 0.00 92 1016.1
20220122005045 28 294 4.0 10.0 0.00 0.00 0.00 92 1016.4
20220122004536 28 277 5.0 10.0 0.00 0.00 0.00 92 1016.4
20220122004030 28 289 4.0 8.0 0.00 0.00 0.00 92 1016.5
20220122003522 28 307 4.0 8.0 0.00 0.00 0.00 92 1016.4
20220122003011 28 291 5.0 10.0 0.00 0.00 0.00 92 1016.5
20220122002506 28 319 5.0 11.0 0.00 0.00 0.00 92 1016.3
20220122001957 28 310 2.0 11.0 0.00 0.00 0.00 92 1016.2
20220122001448 28 305 7.0 11.0 0.00 0.00 0.00 92 1016.5
20220122000940 28 294 5.0 11.0 0.00 0.00 0.00 92 1016.4
20220122000432 28 281 9.0 11.0 0.00 0.00 0.00 92 1016.4
20220121235923 28 313 7.0 13.0 0.00 0.00 0.00 91 1016.3
20220121235415 28 292 10.0 16.0 0.00 0.00 0.00 91 1016.1
20220121234907 28 290 8.0 16.0 0.00 0.00 0.00 91 1016.3
20220121234400 28 301 8.0 14.0 0.00 0.00 0.00 91 1016.5
20220121233854 28 279 9.0 13.0 0.00 0.00 0.00 91 1016.3
20220121233346 28 323 8.0 14.0 0.00 0.00 0.00 91 1016.4
20220121232836 28 285 9.0 14.0 0.00 0.00 0.00 91 1016.6
20220121232329 28 305 10.0 14.0 0.00 0.00 0.00 91 1016.5
20220121231819 28 291 9.0 15.0 0.00 0.00 0.00 90 1016.8
20220121231312 28 287 9.0 15.0 0.00 0.00 0.00 90 1016.6
20220121230804 28 289 6.0 13.0 0.00 0.00 0.00 90 1016.7
20220121230255 28 284 7.0 13.0 0.00 0.00 0.00 90 1016.7
20220121225748 28 292 9.0 13.0 0.00 0.00 0.00 90 1016.8
20220121225242 28 304 9.0 17.0 0.00 0.00 0.00 89 1016.7
20220121224732 28 282 10.0 17.0 0.00 0.00 0.00 89 1016.6
20220121224224 28 310 13.0 16.0 0.00 0.00 0.00 88 1016.8
20220121223719 28 312 11.0 18.0 0.00 0.00 0.00 87 1016.9
20220121223208 28 285 11.0 18.0 0.00 0.00 0.00 86 1016.9
20220121222700 28 269 11.0 17.0 0.00 0.00 0.00 85 1017.0
20220121222153 28 290 11.0 18.0 0.00 0.00 0.00 84 1017.1
20220121221645 28 291 13.0 18.0 0.00 0.00 0.00 83 1017.1
20220121221136 28 285 11.0 16.0 0.00 0.00 0.00 81 1017.1
20220121220630 28 281 10.0 16.0 0.00 0.00 0.00 81 1017.2
20220121220133 29 276 6.0 21.0 0.00 0.00 0.00 80 1017.1
20220121215614 29 289 9.0 21.0 0.00 0.00 0.00 78 1017.3
20220121215103 29 290 9.0 18.0 0.00 0.00 0.00 75 1017.4
20220121214555 29 299 10.0 18.0 0.00 0.00 0.00 74 1017.1
20220121214049 29 304 16.0 18.0 0.00 0.00 0.00 73 1017.3
20220121213541 29 288 9.0 15.0 0.00 0.00 0.00 74 1017.4
20220121213033 29 276 7.0 15.0 0.00 0.00 0.00 75 1017.2
20220121212525 29 284 10.0 16.0 0.00 0.00 0.00 75 1017.4
20220121212015 29 289 11.0 16.0 0.00 0.00 0.00 75 1017.4
20220121211508 29 288 8.0 14.0 0.00 0.00 0.00 75 1017.6
20220121211003 29 268 9.0 14.0 0.00 0.00 0.00 75 1017.9
20220121210452 29 309 11.0 14.0 0.00 0.00 0.00 77 1017.7
20220121205946 29 311 8.0 14.0 0.00 0.00 0.00 76 1017.6
20220121205437 29 292 6.0 14.0 0.00 0.00 0.00 76 1017.8
20220121204928 29 284 9.0 11.0 0.00 0.00 0.00 76 1018.1
20220121204420 29 288 7.0 15.0 0.00 0.00 0.00 76 1018.1
20220121203912 29 272 6.0 15.0 0.00 0.00 0.00 75 1018.2
20220121203404 29 277 9.0 16.0 0.00 0.00 0.00 75 1018.2
20220121202856 29 279 10.0 17.0 0.00 0.00 0.00 74 1018.1
20220121202349 29 285 11.0 17.0 0.00 0.00 0.00 74 1018.0
20220121201840 29 278 7.0 14.0 0.00 0.00 0.00 74 1018.0
20220121201331 29 276 12.0 14.0 0.00 0.00 0.00 74 1018.4
20220121200823 29 278 13.0 14.0 0.00 0.00 0.00 74 1018.3
20220121200316 29 282 7.0 14.0 0.00 0.00 0.00 74 1018.3
20220121195809 28 290 8.0 14.0 0.00 0.00 0.00 75 1018.1
20220121195301 28 285 6.0 11.0 0.00 0.00 0.00 75 1018.0
20220121194752 28 286 6.0 11.0 0.00 0.00 0.00 75 1018.3
20220121194244 28 286 9.0 11.0 0.00 0.00 0.00 74 1018.2
20220121193737 28 305 10.0 13.0 0.00 0.00 0.00 75 1018.2
20220121193229 28 294 9.0 13.0 0.00 0.00 0.00 76 1018.3
20220121192720 28 299 9.0 14.0 0.00 0.00 0.00 77 1018.1
20220121192213 28 272 8.0 16.0 0.00 0.00 0.00 78 1018.1
20220121191706 28 291 10.0 16.0 0.00 0.00 0.00 80 1018.3
20220121191157 28 270 7.0 11.0 0.00 0.00 0.00 82 1018.2
20220121190647 28 283 7.0 11.0 0.00 0.00 0.00 84 1018.2
20220121190140 28 299 8.0 13.0 0.00 0.00 0.00 85 1018.3
20220121185632 28 291 9.0 13.0 0.00 0.00 0.00 86 1018.2
20220121185127 28 280 7.0 15.0 0.00 0.00 0.00 85 1018.2
20220121184617 28 280 9.0 15.0 0.00 0.00 0.00 86 1018.2
20220121184108 28 282 8.0 15.0 0.00 0.00 0.00 87 1018.1
20220121183602 28 298 6.0 15.0 0.00 0.00 0.00 87 1018.2
20220121183053 28 294 10.0 15.0 0.00 0.00 0.00 86 1018.3
20220121182545 28 282 9.0 14.0 0.00 0.00 0.00 84 1018.4
20220121182036 28 267 7.0 15.0 0.00 0.00 0.00 84 1018.4
20220121181527 28 277 9.0 15.0 0.00 0.00 0.00 83 1018.3
20220121181021 28 312 9.0 14.0 0.00 0.00 0.00 83 1018.1
20220121180511 28 286 9.0 14.0 0.00 0.00 0.00 83 1018.4
20220121180003 28 294 7.0 15.0 0.00 0.00 0.00 83 1018.2
20220121175457 28 259 8.0 15.0 0.00 0.00 0.00 83 1018.3
20220121174947 27 284 11.0 14.0 0.00 0.00 0.00 84 1018.2
20220121174440 27 294 8.0 10.0 0.00 0.00 0.00 87 1018.3
20220121173932 27 302 7.0 10.0 0.00 0.00 0.00 89 1018.1
20220121173424 27 293 6.0 10.0 0.00 0.00 0.00 90 1018.4
20220121172916 27 282 6.0 10.0 0.00 0.00 0.00 90 1018.4
20220121172408 27 311 8.0 10.0 0.00 0.00 0.00 90 1018.4
20220121171859 28 288 4.0 11.0 0.00 0.00 0.00 90 1018.5
20220121171351 27 308 7.0 15.0 0.00 0.00 0.00 90 1018.5
20220121170844 27 338 8.0 18.0 0.00 0.00 0.00 90 1018.5
20220121170338 28 316 10.0 18.0 0.00 0.00 0.00 90 1018.6
20220121165828 28 310 12.0 15.0 0.00 0.00 0.00 89 1018.6
20220121165320 28 306 7.0 15.0 0.00 0.00 0.00 89 1018.4
20220121164801 28 299 9.0 18.0 0.00 0.00 0.00 88 1018.2
20220121164252 28 321 13.0 18.0 0.00 0.00 0.00 87 1018.5
20220121163744 28 283 9.0 17.0 0.00 0.00 0.00 87 1018.3
20220121163236 28 285 11.0 17.0 0.00 0.00 0.00 88 1018.5
20220121162729 28 278 13.0 17.0 0.00 0.00 0.00 88 1018.3
20220121162220 28 307 8.0 14.0 0.00 0.00 0.00 88 1018.1
20220121161712 28 311 9.0 14.0 0.00 0.00 0.00 88 1018.1
20220121161205 28 287 8.0 16.0 0.00 0.00 0.00 86 1018.0
20220121160657 28 292 8.0 16.0 0.00 0.00 0.00 84 1018.2
20220121160152 28 283 8.0 16.0 0.00 0.00 0.00 81 1018.1
20220121155641 29 281 8.0 14.0 0.00 0.00 0.00 80 1018.3
20220121155133 29 294 9.0 14.0 0.00 0.00 0.00 75 1018.1
20220121154627 29 312 5.0 14.0 0.00 0.00 0.00 76 1018.0
20220121154118 29 286 12.0 19.0 0.00 0.00 0.00 78 1017.9
20220121153608 29 285 13.0 19.0 0.00 0.00 0.00 76 1018.2
20220121153100 29 291 13.0 16.0 0.00 0.00 0.00 71 1018.1
20220121152554 29 285 10.0 16.0 0.00 0.00 0.00 72 1017.9
20220121152047 29 294 10.0 16.0 0.00 0.00 0.00 73 1017.9
20220121151537 29 293 10.0 15.0 0.00 0.00 0.00 75 1017.8
20220121151030 28 294 10.0 15.0 0.00 0.00 0.00 79 1017.9
20220121150519 28 285 8.0 15.0 0.00 0.00 0.00 80 1017.7
20220121150012 28 274 6.0 17.0 0.00 0.00 0.00 81 1017.8
20220121145504 28 289 11.0 18.0 0.00 0.00 0.00 80 1017.9
20220121144956 28 275 11.0 19.0 0.00 0.00 0.00 77 1017.8
20220121144448 29 290 9.0 21.0 0.00 0.00 0.00 78 1017.8
20220121143940 29 300 10.0 21.0 0.00 0.00 0.00 73 1017.7
20220121143432 29 304 10.0 24.0 0.00 0.00 0.00 73 1017.9
20220121142925 29 284 9.0 24.0 0.00 0.00 0.00 73 1017.7
20220121142418 29 298 13.0 19.0 0.00 0.00 0.00 73 1018.0
20220121141909 29 295 11.0 19.0 0.00 0.00 0.00 72 1017.9
20220121141400 29 278 10.0 21.0 0.00 0.00 0.00 72 1017.8
20220121140853 29 313 8.0 21.0 0.00 0.00 0.00 72 1018.2
20220121140345 29 278 10.0 23.0 0.00 0.00 0.00 70 1018.0
20220121135837 30 290 11.0 23.0 0.00 0.00 0.00 69 1017.5
20220121135331 30 315 13.0 21.0 0.00 0.00 0.00 69 1017.8
20220121134820 30 283 13.0 19.0 0.00 0.00 0.00 68 1017.8
20220121134314 30 264 13.0 22.0 0.00 0.00 0.00 68 1017.7
20220121133806 30 280 12.0 25.0 0.00 0.00 0.00 67 1017.8
20220121133257 30 289 13.0 27.0 0.00 0.00 0.00 66 1017.7
20220121132748 30 284 19.0 25.0 0.00 0.00 0.00 66 1018.1
20220121132242 30 293 12.0 24.0 0.00 0.00 0.00 66 1018.0
20220121131732 30 291 14.0 24.0 0.00 0.00 0.00 66 1017.8
20220121131224 30 274 17.0 26.0 0.00 0.00 0.00 66 1018.0
20220121130724 30 274 15.0 26.0 0.00 0.00 0.00 66 1018.0
20220121130208 30 273 17.0 25.0 0.00 0.00 0.00 67 1018.0
20220121125701 30 280 11.0 25.0 0.00 0.00 0.00 67 1017.9
20220121125153 30 280 18.0 23.0 0.00 0.00 0.00 68 1017.9
20220121124645 30 289 10.0 23.0 0.00 0.00 0.00 68 1018.0
20220121124138 30 281 14.0 23.0 0.00 0.00 0.00 67 1018.1
20220121123631 30 286 12.0 27.0 0.00 0.00 0.00 68 1018.0
20220121123121 30 301 14.0 27.0 0.00 0.00 0.00 68 1018.0
20220121122612 30 246 15.0 19.0 0.00 0.00 0.00 68 1018.2
20220121122105 30 287 15.0 25.0 0.00 0.00 0.00 68 1018.2
20220121121556 30 280 14.0 25.0 0.00 0.00 0.00 68 1018.1
20220121121048 30 294 19.0 24.0 0.00 0.00 0.00 68 1018.3
20220121120541 30 301 21.0 24.0 0.00 0.00 0.00 67 1018.2
20220121120032 30 299 13.0 24.0 0.00 0.00 0.00 68 1017.8
20220121115524 30 285 18.0 24.0 0.00 0.00 0.00 67 1018.3
20220121115017 30 293 17.0 24.0 0.00 0.00 0.00 67 1018.5
20220121114508 30 282 12.0 27.0 0.00 0.00 0.00 68 1018.3
20220121114000 30 289 16.0 27.0 0.00 0.00 0.00 68 1018.3
20220121113454 30 286 18.0 25.0 0.00 0.00 0.00 68 1018.3
20220121112946 30 323 16.0 27.0 0.00 0.00 0.00 69 1018.1
20220121112437 30 295 14.0 27.0 0.00 0.00 0.00 69 1018.5
20220121111928 30 295 18.0 23.0 0.00 0.00 0.00 68 1018.4
20220121111420 30 282 15.0 31.0 0.00 0.00 0.00 68 1018.4
20220121110912 30 287 18.0 31.0 0.00 0.00 0.00 68 1018.4
20220121110404 30 275 19.0 27.0 0.00 0.00 0.00 68 1018.6
20220121105857 31 286 16.0 27.0 0.00 0.00 0.00 68 1018.4
20220121105348 30 290 13.0 22.0 0.00 0.00 0.00 68 1018.5
20220121104840 30 286 16.0 23.0 0.00 0.00 0.00 68 1018.5
20220121104334 30 287 12.0 24.0 0.00 0.00 0.00 69 1018.3
20220121103824 29 292 14.0 24.0 0.00 0.00 0.00 70 1018.7
20220121103316 29 280 17.0 23.0 0.00 0.00 0.00 70 1018.3
20220121102808 29 306 13.0 27.0 0.00 0.00 0.00 70 1018.6
20220121102300 29 290 18.0 27.0 0.00 0.01 0.00 70 1018.6
20220121101754 30 295 8.0 19.0 0.00 0.01 0.00 70 1018.4
20220121101252 30 286 10.0 18.0 0.00 0.01 0.00 70 1018.7
20220121100737 30 298 11.0 18.0 0.00 0.01 0.00 70 1018.6
20220121100228 30 312 11.0 23.0 0.00 0.01 0.00 71 1018.6
20220121095722 30 274 11.0 23.0 0.00 0.01 0.00 71 1018.5
20220121095212 30 283 15.0 25.0 0.00 0.01 0.00 70 1018.6
20220121094704 30 282 18.0 22.0 0.00 0.01 0.00 70 1018.9
20220121094156 30 289 14.0 21.0 0.00 0.01 0.00 70 1018.7
20220121093649 30 287 13.0 22.0 0.00 0.01 0.00 70 1018.8
20220121093140 30 287 11.0 22.0 0.00 0.01 0.00 70 1018.9
20220121092632 30 284 17.0 23.0 0.00 0.01 0.00 70 1018.7
20220121092124 30 286 12.0 23.0 0.00 0.01 0.00 70 1018.7
20220121091616 30 296 12.0 21.0 0.00 0.01 0.00 70 1018.6
20220121091108 30 285 10.0 19.0 0.00 0.01 0.00 70 1018.3
20220121090600 30 286 10.0 22.0 0.00 0.01 0.00 70 1018.4
20220121090052 30 273 17.0 22.0 0.00 0.01 0.00 70 1018.5
20220121085550 29 281 14.0 22.0 0.00 0.01 0.00 70 1018.5
20220121085036 29 289 13.0 19.0 0.00 0.01 0.00 71 1018.5
20220121084528 29 279 8.0 19.0 0.00 0.01 0.00 72 1018.4
20220121084021 29 278 13.0 18.0 0.00 0.01 0.00 72 1018.4
20220121083513 29 282 9.0 22.0 0.00 0.01 0.00 73 1018.4
20220121083005 29 280 11.0 22.0 0.00 0.01 0.00 74 1018.3
20220121082456 29 287 10.0 19.0 0.00 0.01 0.00 75 1018.3
20220121081949 29 278 12.0 19.0 0.00 0.01 0.00 75 1018.5
20220121081440 28 286 15.0 19.0 0.00 0.01 0.00 75 1018.3
20220121080933 28 288 11.0 18.0 0.00 0.01 0.00 77 1018.5
20220121080425 28 282 10.0 17.0 0.00 0.01 0.00 78 1018.4
20220121075917 28 303 13.0 17.0 0.00 0.01 0.00 78 1018.3
20220121075410 28 293 13.0 17.0 0.00 0.01 0.00 78 1018.2
20220121074902 28 272 10.0 18.0 0.00 0.02 0.00 78 1018.1
20220121074352 28 284 10.0 18.0 0.00 0.02 0.00 78 1018.3
20220121073844 28 274 11.0 18.0 0.00 0.02 0.00 77 1018.3
20220121073336 28 279 13.0 17.0 0.00 0.02 0.00 76 1018.1
20220121072828 28 261 12.0 17.0 0.00 0.02 0.00 76 1018.2
20220121072321 28 284 9.0 21.0 0.00 0.02 0.00 76 1018.1
20220121071812 28 286 11.0 17.0 0.00 0.03 0.00 75 1018.2
20220121071304 28 283 12.0 18.0 0.00 0.03 0.00 75 1018.0
20220121070756 28 287 8.0 21.0 0.00 0.03 0.00 75 1018.0
20220121070248 28 291 10.0 21.0 0.00 0.03 0.00 75 1018.0
20220121065740 28 292 12.0 21.0 0.00 0.04 0.00 76 1018.0
20220121065232 28 284 15.0 21.0 0.00 0.04 0.00 75 1018.1
20220121064724 28 296 11.0 18.0 0.00 0.04 0.00 76 1017.9
20220121064216 28 299 12.0 21.0 0.00 0.04 0.00 76 1017.9
20220121063709 28 279 10.0 21.0 0.00 0.04 0.00 75 1018.0
20220121063203 28 272 10.0 22.0 0.00 0.04 0.00 75 1017.9
20220121062654 28 280 13.0 22.0 0.00 0.04 0.00 75 1017.7
20220121062146 28 295 13.0 22.0 0.00 0.04 0.00 75 1017.8
20220121061649 28 280 10.0 22.0 0.00 0.04 0.00 75 1017.6
20220121061129 28 309 13.0 18.0 0.00 0.04 0.00 75 1017.6
20220121060622 27 280 8.0 23.0 0.00 0.04 0.00 75 1017.8
20220121060118 27 271 11.0 23.0 0.00 0.04 0.00 75 1017.8
20220121055605 28 289 11.0 16.0 0.00 0.04 0.00 75 1017.8